Location: Lourdes
(43.1000°N, 0.0500°W)
Time: 11:25:30
(UTC+00:00)

USA 215 - Pass Details

Date: 30 November 2020
Orbit: 1098 x 1110 km, 123.0° (Epoch: 22 January)

Event Time Altitude Azimuth Distance (km) Brightness Sun altitude
Exits shadow 17:43:49 18° 64° (ENE) 2,436 4.4 -13.8°
Maximum altitude 17:48:36 48° 131° (SE) 1,411 3.6 -14.6°
Drops below altitude 10° 17:54:53 10° 205° (SSW) 2,964 6.1 -15.7°
Sets 17:57:28 0° 211° (SSW) 3,919 6.9 -16.2°
